Weather in Velikaya Blagoveshenka

Ukraine / Kherson District     46°52′01″N   34°03′51″E
temp.,
°C
wind,
m/s
gust,
m/s
humid.,
%
clouds,
%
prec.,
mm/h
press.,
hPa
HPBL,
m
11 april, sun
sun1100:00+6n411575 0.0 1025187
03:00+5nne412585 0.0 1025208
06:00+4nne410655 0.0 1025167
09:00+10nne7115097 0.0 1025669
12:00+14ne810395 0.0 10241335
15:00+15ne8937100 0.0 10231463
18:00+14nne6943100 0.0 1022973
21:00+10nne51256100 0.0 1023300
12 april, mon
mon1200:00+10nne61253100 0.0 1021346
03:00+8nne51162100 0.0 1021287
06:00+9nne4964100 0.0 1020353
09:00+9nne3672100 0.0 1020285
12:00+13se2364100 0.0 10201006
15:00+14se226599 0.0 1020931
18:00+14s2267100 0.0 1019558
21:00+11ssw3579100 0.0 1021173
13 april, tue
tue1300:00+10s2482100 0.0 1020169
03:00+10se2284100 0.0 102096
06:00+9se2288100 0.0 102095
09:00+11se3383100 0.0 1020431
12:00+13sse4472100 0.0 1020897
15:00+14ssw446299 0.1 10201014
18:00+14ssw336458 0.0 1019910
21:00+11ssw3576100 0.1 1020177
14 april, wed
wed1400:00+10sse2485100 0.0 1019205
03:00+9se238937 0.0 101979
06:00+6ese22935 0.0 101835
09:00+11ese347839 0.0 1018491
12:00+15se565181 0.1 10161766
15:00+16sse664733 0.1 10161708
18:00+14se555774 0.0 1015962
21:00+10ese51077100 0.0 1015387
15 april, thu
thu1500:00+8ese598358 0.0 1014291
03:00+7se379576 0.0 1014170
06:00+8se2389100 0.0 101465
09:00+10e4584100 0.0 1014244
12:00+13se4566100 0.0 1013732
15:00+13sse4568100 0.1 1013904
18:00+10e3692100 1.8 1013462
21:00+9ese2296100 3.0 1012212